Regional Weather Roundup
Issued by NWS Northern Indiana

Home | Current Version | Previous Version | Graphics & Text | Print | Product List | Glossary On
Versions: 1 2 3 4 5 6 7 8 9 10 11 12 13 14 15 16 17 18 19 20 21 22 23 24 25 26 27 28 29 30 31 32 33 34 35 36 37 38 39 40 41 42 43 44 45 46 47 48 49 50
000
ASUS43 KIWX 242210
RWRIWX

KIWX WEATHER ROUNDUP
NATIONAL WEATHER SERVICE NORTHERN INDIANA
600 PM EDT THU JUL 24 2014

NOTE: "FAIR" INDICATES FEW OR NO CLOUDS BELOW 12,000 FEET WITH NO
SIGNIFICANT WEATHER AND/OR OBSTRUCTIONS TO VISIBILITY.

* THESE STATIONS ARE NOT UNDER NWS QUALITY CONTROL. THEY ALSO MAY NOT
  REPORT WEATHER SUCH AS PRECIPITATION OR FOG.

INZ001>027-242300-
NORTHERN INDIANA

CITY           SKY/WX    TMP DP  RH WIND       PRES   REMARKS
GARY*          MOSUNNY   72  54  53 NE10      30.10F
VALPARAISO     SUNNY     72  54  53 N6        30.09F
MICHIGAN CITY* SUNNY     68  50  52 N5        30.09F
LAPORTE*       SUNNY     70  52  53 N7        30.09F
KNOX*          SUNNY     73  55  52 N8        30.07F
SOUTH BEND     SUNNY     73  53  49 NW10      30.08F
GOSHEN         MOSUNNY   73  52  47 E3        30.07F
MONTICELLO*    PTSUNNY   73  55  53 N5        30.07S
LOGANSPORT*    MOSUNNY   73  52  46 E3        30.08S
ROCHESTER*     SUNNY     75  50  41 CALM      30.07F
WARSAW*        SUNNY     72  52  49 CALM      30.07F
ANGOLA*        SUNNY     73  55  53 CALM      30.07F
FORT WAYNE     PTSUNNY   75  50  41 E6        30.06F
HUNTINGTON*    PTSUNNY   76  53  43 E7        30.05S
PERU/GRISSOM   PTSUNNY   71  55  56 NE7       30.07F
MARION*        PTSUNNY   74  50  42 E6        30.06F

$$
INZ028>050-242300-
CENTRAL INDIANA

CITY           SKY/WX    TMP DP  RH WIND       PRES   REMARKS
LAFAYETTE      MOSUNNY   75  53  46 NE8       30.06F
KOKOMO*        PTSUNNY   73  52  46 CALM      30.06S
MUNCIE*        PTSUNNY   74  49  41 NE10      30.06F
INDIANAPOLIS   MOSUNNY   75  51  43 NE10      30.04F

$$
MIZ043>046-050>051-056>058-064>065-071>073-077>080-242300-
SOUTHWEST LOWER MICHIGAN

CITY           SKY/WX    TMP DP  RH WIND       PRES   REMARKS
BATTLE CREEK   MOSUNNY   74  49  41 N6        30.07F
BENTON HARBOR  SUNNY     66  50  56 N8        30.09F
COLDWATER*     SUNNY     74  49  40 CALM      30.07F
HILLSDALE*     PTSUNNY   74  49  40 NE6       30.07F
HOLLAND        SUNNY     70  50  49 W10       30.09F
GRAND RAPIDS   MOSUNNY   76  51  41 E7        30.07F
KALAMAZOO      PTSUNNY   74  48  39 CALM      30.07F
STURGIS*       PTSUNNY   72  54  53 E3        30.07S
THREE RIVERS*  PTSUNNY   75  52  45 CALM      30.07F

$$
OHZ001>008-015>018-024>025-242300-
NORTHWEST OHIO

CITY           SKY/WX    TMP DP  RH WIND       PRES   REMARKS
WAUSEON*       FAIR      73  50  43 NE6       30.05F
DEFIANCE       PTSUNNY   75  49  39 E6        30.05F
FINDLAY        MOSUNNY   74  49  41 NE9G20    30.05F
TOLEDO EXPRESS PTSUNNY   71  51  49 E6        30.05F
TOLEDO METCALF SUNNY     74  50  42 VRB5      30.06F
LIMA           MOSUNNY   72  52  49 NE6       30.06F

$$
&&


USA.gov is the U.S. government's official web portal to all federal, state and local government web resources and services.